| time (UTC) | temp F | wind direction | speed MPH | gust MPH | rain 1hr in | rain 24hr in | rain mn in | humidity % | barometer mb |
| 20260903201545 | 85 | 163 | 3.0 | 9.0 | 0.00 | 0.08 | 0.08 | 68 | 1012.9 |
| 20260903200040 | 84 | 162 | 3.0 | 8.0 | 0.00 | 0.08 | 0.08 | 72 | 1013.1 |
| 20260903194538 | 84 | 178 | 3.0 | 8.0 | 0.00 | 0.08 | 0.08 | 70 | 1013.2 |
| 20260903193042 | 82 | 180 | 2.0 | 3.0 | 0.00 | 0.08 | 0.08 | 72 | 1013.5 |
| 20260903191537 | 81 | 63 | 1.0 | 5.0 | 0.00 | 0.08 | 0.08 | 76 | 1013.9 |
| 20260903190040 | 80 | 5 | 1.0 | 4.0 | 0.00 | 0.08 | 0.08 | 79 | 1013.9 |
| 20260903184549 | 79 | 283 | 2.0 | 11.0 | 0.00 | 0.08 | 0.08 | 82 | 1013.9 |
| 20260903183041 | 78 | 159 | 4.0 | 11.0 | 0.00 | 0.08 | 0.08 | 88 | 1013.2 |
| 20260903181542 | 76 | 180 | 3.0 | 8.0 | 0.01 | 0.08 | 0.08 | 91 | 1013.4 |
| 20260903180041 | 74 | 149 | 2.0 | 6.0 | 0.03 | 0.08 | 0.08 | 92 | 1013.8 |
| 20260903174540 | 73 | 85 | 0.0 | 3.0 | 0.03 | 0.08 | 0.08 | 91 | 1013.9 |
| 20260903173040 | 72 | 344 | 2.0 | 10.0 | 0.03 | 0.08 | 0.08 | 91 | 1014.0 |
| 20260903171554 | 72 | 336 | 4.0 | 13.0 | 0.06 | 0.07 | 0.07 | 91 | 1014.4 |
| 20260903170042 | 71 | 347 | 3.0 | 13.0 | 0.05 | 0.05 | 0.05 | 90 | 1014.7 |
| 20260903164540 | 71 | 331 | 6.0 | 16.0 | 0.05 | 0.05 | 0.05 | 89 | 1015.0 |
| 20260903163042 | 72 | 314 | 6.0 | 20.0 | 0.05 | 0.05 | 0.05 | 85 | 1015.2 |
| 20260903161539 | 76 | 300 | 11.0 | 21.0 | 0.00 | 0.00 | 0.00 | 79 | 1016.6 |
| 20260903160039 | 78 | 294 | 6.0 | 16.0 | 0.00 | 0.00 | 0.00 | 72 | 1015.2 |
| 20260903154541 | 79 | 291 | 6.0 | 15.0 | 0.00 | 0.00 | 0.00 | 69 | 1014.6 |
| 20260903153040 | 80 | 317 | 3.0 | 13.0 | 0.00 | 0.00 | 0.00 | 69 | 1014.4 |
| 20260903151539 | 81 | 300 | 3.0 | 11.0 | 0.00 | 0.00 | 0.00 | 72 | 1013.9 |
| 20260903150039 | 81 | 315 | 3.0 | 13.0 | 0.00 | 0.00 | 0.00 | 72 | 1014.2 |
| 20260903144541 | 82 | 313 | 4.0 | 11.0 | 0.00 | 0.00 | 0.00 | 75 | 1014.4 |
| 20260903143046 | 84 | 275 | 7.0 | 17.0 | 0.00 | 0.00 | 0.00 | 73 | 1014.3 |
| 20260903141539 | 85 | 267 | 1.0 | 7.0 | 0.00 | 0.00 | 0.00 | 74 | 1013.3 |
| 20260903140045 | 85 | 210 | 1.0 | 6.0 | 0.00 | 0.00 | 0.00 | 75 | 1013.1 |
| 20260903134539 | 83 | 252 | 2.0 | 8.0 | 0.00 | 0.00 | 0.00 | 79 | 1012.9 |
| 20260903133042 | 81 | 352 | 1.0 | 8.0 | 0.00 | 0.00 | 0.00 | 84 | 1012.9 |
| 20260903131539 | 78 | 245 | 1.0 | 7.0 | 0.00 | 0.00 | 0.00 | 88 | 1012.7 |
| 20260903130054 | 76 | 235 | 1.0 | 5.0 | 0.00 | 0.00 | 0.00 | 90 | 1012.6 |
| 20260903124553 | 75 | 202 | 3.0 | 6.0 | 0.00 | 0.00 | 0.00 | 92 | 1012.7 |
| 20260903123046 | 75 | 247 | 2.0 | 7.0 | 0.00 | 0.00 | 0.00 | 92 | 1012.8 |
| 20260903121541 | 74 | 171 | 2.0 | 7.0 | 0.00 | 0.00 | 0.00 | 92 | 1012.8 |
| 20260903120038 | 74 | 184 | 1.0 | 4.0 | 0.00 | 0.00 | 0.00 | 93 | 1012.9 |
| 20260903114539 | 74 | 171 | 2.0 | 7.0 | 0.00 | 0.00 | 0.00 | 92 | 1012.8 |
| 20260903113040 | 73 | 205 | 1.0 | 7.0 | 0.00 | 0.00 | 0.00 | 92 | 1012.8 |
| 20260903111537 | 73 | 189 | 1.0 | 3.0 | 0.00 | 0.00 | 0.00 | 92 | 1012.9 |
| 20260903110044 | 74 | 0 | 0.0 | 0.0 | 0.00 | 0.00 | 0.00 | 92 | 1012.9 |
| 20260903104539 | 74 | 0 | 0.0 | 0.0 | 0.00 | 0.00 | 0.00 | 92 | 1012.8 |
| 20260903103040 | 74 | 0 | 0.0 | 0.0 | 0.00 | 0.00 | 0.00 | 92 | 1012.8 |
| 20260903101538 | 74 | 0 | 0.0 | 0.0 | 0.00 | 0.00 | 0.00 | 92 | 1012.8 |
| 20260903100042 | 75 | 0 | 0.0 | 2.0 | 0.00 | 0.00 | 0.00 | 92 | 1012.6 |
| 20260903094547 | 75 | 0 | 0.0 | 3.0 | 0.00 | 0.00 | 0.00 | 92 | 1012.7 |
| 20260903093040 | 75 | 231 | 1.0 | 6.0 | 0.00 | 0.00 | 0.00 | 92 | 1012.7 |
| 20260903091538 | 75 | 306 | 1.0 | 6.0 | 0.00 | 0.00 | 0.00 | 92 | 1012.9 |
| 20260903090055 | 75 | 202 | 1.0 | 5.0 | 0.00 | 0.00 | 0.00 | 92 | 1012.7 |
| 20260903084540 | 75 | 171 | 0.0 | 4.0 | 0.00 | 0.00 | 0.00 | 92 | 1012.7 |
| 20260903083055 | 75 | 0 | 0.0 | 2.0 | 0.00 | 0.00 | 0.00 | 92 | 1012.8 |
| 20260903081540 | 75 | 261 | 0.0 | 2.0 | 0.00 | 0.00 | 0.00 | 92 | 1012.9 |
| 20260903080038 | 75 | 0 | 0.0 | 1.0 | 0.00 | 0.00 | 0.00 | 91 | 1012.5 |
| 20260903074542 | 75 | 0 | 0.0 | 2.0 | 0.00 | 0.00 | 0.00 | 91 | 1012.5 |
| 20260903073039 | 75 | 0 | 0.0 | 0.0 | 0.00 | 0.00 | 0.00 | 91 | 1012.6 |
| 20260903071557 | 75 | 0 | 0.0 | 0.0 | 0.00 | 0.00 | 0.00 | 91 | 1012.6 |
| 20260903070044 | 76 | 0 | 0.0 | 0.0 | 0.00 | 0.00 | 0.00 | 91 | 1012.7 |
| 20260903064539 | 76 | 0 | 0.0 | 0.0 | 0.00 | 0.00 | 0.00 | 91 | 1012.8 |
| 20260903063046 | 76 | 0 | 0.0 | 0.0 | 0.00 | 0.00 | 0.00 | 91 | 1012.9 |
| 20260903061540 | 76 | 0 | 0.0 | 0.0 | 0.00 | 0.00 | 0.00 | 91 | 1013.0 |
| 20260903060109 | 76 | 0 | 0.0 | 0.0 | 0.00 | 0.00 | 0.00 | 91 | 1013.1 |
| 20260903054558 | 76 | 0 | 0.0 | 1.0 | 0.00 | 0.00 | 0.00 | 91 | 1013.0 |
| 20260903053038 | 76 | 0 | 0.0 | 2.0 | 0.00 | 0.00 | 0.00 | 91 | 1013.0 |
| 20260903051539 | 76 | 0 | 0.0 | 2.0 | 0.00 | 0.00 | 0.00 | 91 | 1013.0 |
| 20260903050046 | 76 | 0 | 0.0 | 2.0 | 0.00 | 0.00 | 0.00 | 90 | 1012.8 |
| 20260903044541 | 76 | 0 | 0.0 | 2.0 | 0.00 | 0.00 | 0.00 | 90 | 1012.7 |
| 20260903043038 | 76 | 0 | 0.0 | 2.0 | 0.00 | 0.00 | 0.00 | 89 | 1012.6 |
| 20260903041540 | 77 | 186 | 0.0 | 2.0 | 0.00 | 0.00 | 0.00 | 90 | 1012.7 |
| 20260903040057 | 77 | 0 | 0.0 | 3.0 | 0.00 | 0.00 | 0.00 | 89 | 1012.6 |
| 20260903034538 | 77 | 0 | 0.0 | 3.0 | 0.00 | 0.00 | 0.00 | 89 | 1012.7 |
| 20260903033038 | 77 | 173 | 0.0 | 4.0 | 0.00 | 0.00 | 0.00 | 89 | 1012.4 |
| 20260903031539 | 77 | 0 | 0.0 | 4.0 | 0.00 | 0.00 | 0.00 | 89 | 1012.5 |
| 20260903030039 | 78 | 0 | 1.0 | 4.0 | 0.00 | 0.00 | 0.00 | 88 | 1012.5 |
| 20260903024544 | 78 | 154 | 0.0 | 3.0 | 0.00 | 0.00 | 0.00 | 88 | 1012.6 |
| 20260903023052 | 78 | 0 | 0.0 | 0.0 | 0.00 | 0.00 | 0.00 | 87 | 1012.5 |
| 20260903021541 | 79 | 0 | 0.0 | 0.0 | 0.00 | 0.00 | 0.00 | 87 | 1012.4 |
| 20260903020041 | 79 | 0 | 0.0 | 0.0 | 0.00 | 0.00 | 0.00 | 86 | 1012.4 |
| 20260903014546 | 80 | 0 | 0.0 | 0.0 | 0.00 | 0.00 | 0.00 | 86 | 1012.4 |
| 20260903013048 | 80 | 0 | 0.0 | 0.0 | 0.00 | 0.00 | 0.00 | 85 | 1012.2 |
| 20260903011542 | 81 | 0 | 0.0 | 0.0 | 0.00 | 0.00 | 0.00 | 84 | 1012.2 |
| 20260903010045 | 81 | 0 | 0.0 | 0.0 | 0.00 | 0.00 | 0.00 | 83 | 1012.0 |
| 20260903004541 | 82 | 0 | 0.0 | 0.0 | 0.00 | 0.00 | 0.00 | 82 | 1011.7 |
| 20260903003040 | 84 | 0 | 0.0 | 0.0 | 0.00 | 0.00 | 0.00 | 80 | 1011.7 |
| 20260903001546 | 85 | 0 | 0.0 | 0.0 | 0.00 | 0.00 | 0.00 | 78 | 1011.7 |
| 20260903000039 | 86 | 0 | 0.0 | 1.0 | 0.00 | 0.00 | 0.00 | 77 | 1011.8 |
| 20260902234555 | 86 | 0 | 0.0 | 1.0 | 0.00 | 0.00 | 0.00 | 76 | 1011.8 |
| 20260902233039 | 87 | 0 | 1.0 | 2.0 | 0.00 | 0.00 | 0.00 | 76 | 1011.8 |
| 20260902231544 | 88 | 229 | 0.0 | 2.0 | 0.00 | 0.00 | 0.00 | 74 | 1011.9 |
| 20260902230038 | 89 | 221 | 0.0 | 2.0 | 0.00 | 0.00 | 0.00 | 71 | 1011.8 |
| 20260902224542 | 89 | 0 | 0.0 | 4.0 | 0.00 | 0.00 | 0.00 | 68 | 1011.7 |
| 20260902223040 | 90 | 266 | 2.0 | 6.0 | 0.00 | 0.00 | 0.00 | 65 | 1011.7 |
| 20260902221540 | 90 | 209 | 2.0 | 7.0 | 0.00 | 0.00 | 0.00 | 67 | 1011.8 |
| 20260902220041 | 91 | 0 | 1.0 | 4.0 | 0.00 | 0.00 | 0.00 | 67 | 1011.9 |
| 20260902214545 | 91 | 329 | 1.0 | 5.0 | 0.00 | 0.00 | 0.00 | 64 | 1012.1 |
| 20260902213038 | 91 | 281 | 2.0 | 6.0 | 0.00 | 0.00 | 0.00 | 62 | 1012.0 |
| 20260902211541 | 92 | 243 | 1.0 | 7.0 | 0.00 | 0.00 | 0.00 | 60 | 1012.1 |
| 20260902210042 | 93 | 223 | 2.0 | 8.0 | 0.00 | 0.00 | 0.00 | 60 | 1012.1 |
| 20260902204540 | 94 | 0 | 4.0 | 12.0 | 0.00 | 0.00 | 0.00 | 60 | 1012.1 |
| 20260902203040 | 94 | 145 | 1.0 | 11.0 | 0.00 | 0.00 | 0.00 | 57 | 1012.1 |